Overview Statistics Trail Chart Weather Telemetry Raw packets
 

This is the latest recevied weather packets stored in our database for station/object EA1HTW-13. If no packets are shown the sender has not sent any weather packets the latest 10 day(s).

<< 61 62 63 64 >>
Time Temp. Humidity Pressure Rain* Wind** Luminosity Snow
1777145542 20° C 64% 1009.9 hPa 0 mm - - -
1777145002 20° C 63% 1009.8 hPa 0 mm - - -
1777144463 20° C 63% 1009.7 hPa 0 mm - - -
1777143923 20° C 64% 1009.7 hPa 0 mm - - -
1777143381 20° C 64% 1009.7 hPa 0 mm - - -
1777142843 20° C 63% 1009.5 hPa 0 mm - - -
1777142302 20° C 63% 1009.5 hPa 0 mm - - -
1777141763 20° C 63% 1009.7 hPa 0 mm - - -
1777141222 20.56° C 62% 1009.5 hPa 0 mm - - -
1777140682 21.11° C 61% 1009.4 hPa 0 mm - - -
1777140143 21.11° C 61% 1009.6 hPa 0 mm - - -
1777139603 21.11° C 61% 1009.5 hPa 0 mm - - -
1777139062 21.67° C 60% 1009.5 hPa 0 mm - - -
1777138522 21.67° C 60% 1009.6 hPa 0 mm - - -
1777137982 21.67° C 59% 1009.5 hPa 0 mm - - -
1777137442 21.67° C 58% 1009.5 hPa 0 mm - - -
1777136903 22.22° C 57% 1009.5 hPa 0 mm - - -
1777136362 22.78° C 52% 1009.8 hPa 0 mm - - -
1777135822 23.33° C 50% 1009.7 hPa 0 mm - - -
1777135282 25° C 47% 1009.5 hPa 0 mm - - -
1777134742 26.11° C 47% 1009.6 hPa 0 mm - - -
1777134203 26.11° C 46% 1009.7 hPa 0 mm - - -
1777133661 25.56° C 46% 1009.7 hPa 0 mm - - -
1777133123 26.11° C 45% 1009.6 hPa 0 mm - - -
1777132582 26.67° C 45% 1009.7 hPa 0 mm - - -

* Rain latest hour (hover to see other rain measurements)
** Current wind speed in m/s (hover to see current wind gust speed)